CW3643 Weather Reports


time (UTC)temp
C
wind
direction
speed
KPH
gust
KPH
rain 1hr
cm
rain 24hr
cm
rain mn
cm
humidity
%
barometer
mb
20200216212458 15 149 0.0 3.2 0.00 0.10 0.03 85 1028.2
20200216212011 15 147 0.0 3.2 0.00 0.10 0.03 85 1028.1
20200216211506 15 205 0.0 1.6 0.00 0.10 0.03 85 1028.1
20200216210958 15 234 0.0 1.6 0.00 0.10 0.03 84 1028.1
20200216210454 15 272 0.0 0.0 0.00 0.10 0.03 84 1028.0
20200216210017 15 272 0.0 1.6 0.00 0.10 0.03 84 1028.0
20200216205500 15 272 0.0 1.6 0.00 0.10 0.03 84 1028.0
20200216205010 15 272 0.0 4.8 0.00 0.10 0.03 84 1028.0
20200216204502 15 272 0.0 4.8 0.00 0.10 0.03 84 1028.0
20200216203956 15 279 0.0 0.0 0.00 0.10 0.03 84 1028.0
20200216203501 15 220 0.0 0.0 0.00 0.10 0.03 84 1028.0
20200216202959 15 219 0.0 0.0 0.00 0.10 0.03 83 1027.9
20200216202458 15 219 0.0 0.0 0.00 0.10 0.03 83 1027.9
20200216202008 15 219 0.0 0.0 0.00 0.10 0.03 83 1027.8
20200216201503 15 219 0.0 0.0 0.00 0.10 0.03 83 1027.8
20200216200959 15 219 0.0 1.6 0.00 0.10 0.03 83 1027.8
20200216200454 15 219 0.0 4.8 0.00 0.10 0.03 83 1027.7
20200216200009 15 181 0.0 4.8 0.00 0.10 0.03 82 1027.7
20200216195552 15 174 1.6 4.8 0.00 0.10 0.03 82 1027.6
20200216195000 15 244 0.0 4.8 0.00 0.10 0.03 82 1027.6
20200216194512 15 195 0.0 6.4 0.00 0.10 0.03 82 1027.5
20200216194011 16 210 0.0 11.3 0.00 0.10 0.03 82 1027.5
20200216193506 16 246 3.2 11.3 0.00 0.10 0.03 82 1027.6
20200216193015 16 237 1.6 14.5 0.00 0.10 0.03 82 1027.6
20200216192506 16 247 6.4 14.5 0.00 0.10 0.03 82 1027.7
20200216192004 16 255 8.0 16.1 0.00 0.10 0.03 82 1027.7
20200216191459 16 244 9.7 14.5 0.00 0.10 0.03 82 1027.7
20200216190958 16 266 8.0 16.1 0.00 0.10 0.03 82 1027.7
20200216190506 16 248 9.7 16.1 0.00 0.10 0.03 82 1027.7
20200216190015 16 251 1.6 11.3 0.00 0.10 0.03 82 1027.6
20200216185459 16 239 0.0 9.7 0.00 0.10 0.03 82 1027.5
20200216185008 16 225 1.6 6.4 0.00 0.10 0.03 82 1027.5
20200216184502 16 178 1.6 6.4 0.00 0.10 0.03 82 1027.5
20200216184012 16 244 1.6 8.0 0.00 0.10 0.03 82 1027.4
20200216183511 16 245 1.6 8.0 0.00 0.10 0.03 81 1027.4
20200216183012 16 261 3.2 9.7 0.00 0.10 0.03 81 1027.4
20200216182504 16 217 1.6 11.3 0.00 0.10 0.03 81 1027.4
20200216182009 16 236 3.2 11.3 0.00 0.10 0.03 81 1027.4
20200216181001 16 201 1.6 11.3 0.00 0.10 0.03 81 1027.3
20200216180458 16 166 1.6 11.3 0.00 0.10 0.03 81 1027.3
20200216174459 16 212 0.0 9.7 0.00 0.10 0.03 80 1027.3
20200216174011 16 151 1.6 14.5 0.00 0.10 0.03 80 1027.3
20200216173508 16 249 6.4 14.5 0.00 0.10 0.03 80 1027.3
20200216172510 16 226 1.6 12.9 0.00 0.10 0.03 80 1027.3
20200216172002 16 269 3.2 12.9 0.00 0.10 0.03 80 1027.3
20200216171456 16 154 0.0 12.9 0.00 0.10 0.03 80 1027.3
20200216171004 16 249 8.0 12.9 0.00 0.10 0.03 80 1027.3
20200216170457 16 280 0.0 8.0 0.00 0.10 0.03 81 1027.3
20200216170021 16 203 4.8 12.9 0.00 0.10 0.03 81 1027.2
20200216165546 16 276 8.0 12.9 0.00 0.10 0.03 81 1027.1
20200216164456 16 147 4.8 9.7 0.00 0.10 0.03 80 1027.0
20200216163458 16 228 3.2 12.9 0.00 0.10 0.03 79 1027.0
20200216163008 16 199 4.8 12.9 0.00 0.10 0.03 79 1027.0
20200216162456 16 160 3.2 11.3 0.00 0.10 0.03 79 1027.0
20200216162007 16 95 0.0 11.3 0.00 0.10 0.03 78 1027.0
20200216161502 16 247 1.6 16.1 0.00 0.10 0.03 78 1027.0
20200216160956 16 309 9.7 16.1 0.00 0.10 0.03 78 1027.0
20200216160507 16 151 3.2 25.7 0.00 0.10 0.03 78 1027.0
20200216160015 16 255 16.1 25.7 0.00 0.10 0.03 77 1027.0
20200216155500 16 228 12.9 20.9 0.00 0.10 0.03 77 1027.0
20200216155009 16 213 9.7 16.1 0.00 0.10 0.03 78 1027.1
20200216154502 16 107 9.7 22.5 0.00 0.10 0.03 77 1027.1
20200216153957 16 233 6.4 25.7 0.00 0.10 0.03 77 1027.1
20200216153510 16 276 12.9 25.7 0.00 0.10 0.03 77 1027.1
20200216152959 16 272 6.4 22.5 0.00 0.10 0.03 77 1027.0
20200216152009 16 295 6.4 24.1 0.00 0.10 0.03 77 1027.0
20200216151504 16 252 8.0 27.4 0.00 0.10 0.03 78 1027.0
20200216150958 16 227 12.9 27.4 0.00 0.10 0.03 78 1027.1
20200216150503 16 270 11.3 27.4 0.00 0.10 0.03 78 1027.1
20200216150009 16 265 9.7 20.9 0.00 0.10 0.03 78 1027.1
20200216145453 16 276 8.0 25.7 0.00 0.10 0.03 78 1027.1
20200216145007 16 236 14.5 25.7 0.00 0.10 0.03 78 1027.1
20200216144457 16 242 16.1 25.7 0.00 0.10 0.03 78 1027.1
20200216144009 16 282 12.9 25.7 0.00 0.10 0.03 79 1027.0
20200216143507 16 280 11.3 22.5 0.00 0.10 0.03 79 1027.0
20200216143002 16 258 11.3 22.5 0.00 0.10 0.03 79 1027.0
20200216142456 16 311 9.7 24.1 0.00 0.10 0.03 81 1027.0
20200216142008 16 269 16.1 24.1 0.00 0.10 0.03 82 1027.1
20200216140956 16 257 17.7 22.5 0.00 0.10 0.03 84 1027.2
20200216140509 16 240 12.9 22.5 0.00 0.10 0.03 85 1027.2
20200216140011 16 254 16.1 27.4 0.00 0.10 0.03 86 1027.3
20200216135453 16 251 16.1 27.4 0.00 0.10 0.03 88 1027.2
20200216135004 16 273 9.7 19.3 0.00 0.10 0.03 90 1027.3
20200216134516 16 255 12.9 19.3 0.00 0.10 0.03 91 1027.3
20200216133507 15 274 9.7 16.1 0.00 0.10 0.03 93 1027.3
20200216133009 15 253 12.9 19.3 0.00 0.10 0.03 94 1027.5
20200216132503 15 264 11.3 19.3 0.00 0.10 0.03 94 1027.5
20200216131957 15 222 9.7 16.1 0.00 0.10 0.03 95 1027.5
20200216131503 15 208 1.6 4.8 0.00 0.10 0.03 95 1027.6
20200216130956 15 235 1.6 12.9 0.00 0.10 0.03 96 1027.6
20200216130511 14 203 4.8 12.9 0.00 0.10 0.03 96 1027.6
20200216130022 14 237 8.0 12.9 0.00 0.10 0.03 96 1027.6
20200216125506 13 133 0.0 0.0 0.00 0.10 0.03 96 1027.7
20200216124958 13 133 0.0 3.2 0.00 0.10 0.03 96 1027.8
20200216124458 13 151 1.6 4.8 0.00 0.10 0.03 96 1028.0
20200216124011 13 68 0.0 4.8 0.00 0.10 0.03 96 1028.1
20200216123506 13 99 1.6 4.8 0.00 0.10 0.03 96 1028.1
20200216123004 13 105 0.0 4.8 0.00 0.10 0.03 96 1028.2
20200216122456 13 105 1.6 4.8 0.00 0.10 0.03 96 1028.3
20200216122004 13 104 0.0 6.4 0.00 0.10 0.03 96 1028.3
20200216121456 13 113 1.6 6.4 0.00 0.10 0.03 96 1028.4
20200216121003 13 89 3.2 6.4 0.00 0.10 0.03 97 1028.4
20200216120456 13 82 3.2 8.0 0.00 0.10 0.03 97 1028.5
20200216120007 13 71 3.2 8.0 0.10 0.10 0.03 97 1028.5
20200216114512 13 56 0.0 4.8 0.10 0.10 0.03 97 1028.5
20200216114006 13 64 0.0 4.8 0.10 0.10 0.03 97 1028.4
20200216113458 12 37 3.2 4.8 0.10 0.10 0.03 97 1028.5
20200216112509 12 241 1.6 6.4 0.10 0.10 0.03 97 1028.5
20200216112002 12 146 0.0 6.4 0.10 0.10 0.03 97 1028.5
20200216111456 12 92 3.2 6.4 0.10 0.10 0.03 97 1028.5
20200216111009 12 108 1.6 4.8 0.10 0.10 0.03 97 1028.6
20200216110501 12 107 0.0 6.4 0.10 0.10 0.03 97 1028.5
20200216110015 12 124 1.6 4.8 0.00 0.00 0.00 97 1028.4
20200216105456 12 49 0.0 3.2 0.00 0.00 0.00 97 1028.4
20200216105007 12 49 0.0 3.2 0.00 0.00 0.00 97 1028.3
20200216104500 12 49 0.0 6.4 0.00 0.00 0.00 97 1028.4
20200216103953 12 49 3.2 6.4 0.00 0.00 0.00 97 1028.3
20200216103510 12 89 3.2 6.4 0.00 0.00 0.00 97 1028.1
20200216103005 12 141 1.6 6.4 0.00 0.00 0.00 97 1028.2
20200216102455 12 110 4.8 6.4 0.00 0.00 0.00 97 1028.1
20200216102048 12 120 4.8 6.4 0.00 0.00 0.00 97 1028.2
20200216101458 12 85 1.6 4.8 0.00 0.00 0.00 97 1028.2
20200216100953 12 59 3.2 4.8 0.00 0.00 0.00 97 1028.3
20200216100458 11 95 1.6 4.8 0.00 0.00 0.00 97 1028.1
20200216100024 11 21 1.6 4.8 0.00 0.00 0.00 97 1028.1
20200216095506 11 21 0.0 4.8 0.00 0.00 0.00 97 1028.1
20200216095009 11 21 0.0 6.4 0.00 0.00 0.00 97 1028.0
20200216094505 11 21 1.6 6.4 0.00 0.00 0.00 97 1028.0
20200216093958 11 64 1.6 4.8 0.00 0.00 0.00 97 1027.9
20200216093456 11 62 0.0 4.8 0.00 0.00 0.00 97 1027.8
20200216093006 11 64 1.6 4.8 0.00 0.00 0.00 97 1027.8
20200216092458 11 89 1.6 3.2 0.00 0.00 0.00 97 1027.7
20200216091501 11 3 1.6 8.0 0.00 0.00 0.00 97 1027.6
20200216091041 11 105 3.2 6.4 0.00 0.00 0.00 97 1027.6
20200216090552 11 161 1.6 4.8 0.00 0.00 0.00 97 1027.6
20200216090014 11 72 0.0 1.6 0.00 0.00 0.00 97 1027.7
20200216085456 11 72 0.0 4.8 0.00 0.00 0.00 97 1027.6
20200216084510 11 70 0.0 4.8 0.00 0.00 0.00 97 1027.4
20200216084000 11 70 1.6 4.8 0.00 0.00 0.00 97 1027.4
20200216083453 11 69 1.6 6.4 0.00 0.00 0.00 97 1027.3
20200216083002 11 69 3.2 6.4 0.00 0.00 0.00 96 1027.2
20200216082457 11 84 3.2 6.4 0.00 0.00 0.00 96 1027.2
20200216082009 11 82 0.0 4.8 0.00 0.00 0.00 96 1027.1
20200216081507 11 82 1.6 4.8 0.00 0.00 0.00 96 1027.0
20200216080020 11 79 0.0 1.6 0.00 0.00 0.00 96 1027.0
20200216075553 11 79 0.0 3.2 0.00 0.00 0.00 96 1026.9
20200216075001 11 79 1.6 4.8 0.00 0.00 0.00 96 1026.9
20200216074455 11 79 1.6 4.8 0.00 0.00 0.00 96 1026.9
20200216074008 11 91 0.0 3.2 0.00 0.00 0.00 96 1026.8
20200216073502 11 91 0.0 3.2 0.00 0.00 0.00 96 1026.8
20200216072554 11 91 1.6 4.8 0.00 0.00 0.00 96 1026.7
20200216071955 11 101 1.6 4.8 0.00 0.00 0.00 96 1026.6
20200216071526 11 66 1.6 4.8 0.00 0.00 0.00 96 1026.7
20200216070459 11 45 0.0 3.2 0.00 0.00 0.00 96 1026.7
20200216070008 11 45 0.0 4.8 0.00 0.00 0.00 96 1026.7
20200216064507 11 105 1.6 6.4 0.00 0.00 0.00 95 1026.5
20200216064001 11 99 3.2 6.4 0.00 0.00 0.00 95 1026.5
20200216063456 11 99 3.2 6.4 0.00 0.00 0.00 95 1026.5
20200216062540 11 55 0.0 1.6 0.00 0.00 0.00 95 1026.6
20200216061955 11 55 0.0 3.2 0.00 0.00 0.00 95 1026.6
20200216061514 11 55 0.0 3.2 0.00 0.00 0.00 95 1026.6
20200216061003 11 55 0.0 4.8 0.00 0.00 0.00 95 1026.7
20200216060455 11 55 1.6 4.8 0.00 0.00 0.00 95 1026.7
20200216060021 11 33 0.0 4.8 0.00 0.00 0.00 95 1026.6
20200216055503 11 33 0.0 4.8 0.00 0.00 0.00 95 1026.6
20200216054955 11 33 1.6 6.4 0.00 0.00 0.00 95 1026.7
20200216054510 11 33 1.6 4.8 0.00 0.00 0.00 95 1026.7
20200216054003 11 33 1.6 8.0 0.00 0.00 0.00 95 1026.7
20200216053457 11 33 4.8 8.0 0.00 0.00 0.00 95 1026.6
20200216053004 12 59 1.6 6.4 0.00 0.00 0.00 95 1026.5
20200216052509 12 99 3.2 6.4 0.00 0.00 0.00 95 1026.5
20200216051954 12 52 1.6 4.8 0.00 0.00 0.00 95 1026.5
20200216051454 12 51 0.0 1.6 0.00 0.00 0.00 95 1026.5
20200216051008 12 51 0.0 3.2 0.00 0.00 0.00 95 1026.5
20200216050502 12 47 1.6 3.2 0.00 0.00 0.00 94 1026.5
20200216050018 12 78 0.0 3.2 0.00 0.00 0.00 95 1026.5
20200216045458 12 78 0.0 3.2 0.00 0.00 0.00 94 1026.5
20200216045012 12 78 1.6 3.2 0.00 0.00 0.00 94 1026.4
20200216044506 12 78 0.0 3.2 0.00 0.00 0.00 94 1026.5
20200216043954 12 78 0.0 3.2 0.00 0.00 0.00 94 1026.5
20200216043507 12 77 0.0 1.6 0.00 0.00 0.00 94 1026.5
20200216043005 12 77 0.0 3.2 0.00 0.00 0.00 94 1026.6
20200216042457 12 118 0.0 3.2 0.00 0.00 0.00 94 1026.6
20200216041507 12 118 1.6 4.8 0.00 0.00 0.00 94 1026.5
20200216041021 12 118 0.0 4.8 0.00 0.00 0.00 94 1026.5
20200216040503 12 118 3.2 4.8 0.00 0.00 0.00 94 1026.5
20200216040013 12 118 0.0 3.2 0.00 0.00 0.00 94 1026.5
20200216034506 12 148 1.6 3.2 0.00 0.00 0.00 94 1026.6
20200216034011 12 147 0.0 3.2 0.00 0.00 0.00 94 1026.6
20200216033509 12 148 0.0 3.2 0.00 0.00 0.00 94 1026.7
20200216032956 12 148 1.6 3.2 0.00 0.00 0.00 94 1026.7
20200216032509 12 148 0.0 0.0 0.00 0.00 0.00 94 1026.7
20200216032000 12 175 0.0 0.0 0.00 0.00 0.00 94 1026.9
20200216031454 12 175 0.0 0.0 0.00 0.00 0.00 94 1026.9
20200216031008 12 175 0.0 0.0 0.00 0.00 0.00 94 1027.0
20200216030506 12 174 0.0 0.0 0.00 0.00 0.00 94 1027.0
20200216030016 12 174 0.0 0.0 0.00 0.00 0.00 93 1027.1
20200216025555 12 174 0.0 0.0 0.00 0.00 0.00 93 1027.0
20200216025003 12 174 0.0 0.0 0.00 0.00 0.00 93 1027.0
20200216024458 12 174 0.0 0.0 0.00 0.00 0.00 93 1027.0
20200216024006 12 174 0.0 0.0 0.00 0.00 0.00 93 1027.0
20200216023459 12 209 0.0 0.0 0.00 0.00 0.00 93 1027.1
20200216023000 12 209 0.0 0.0 0.00 0.00 0.00 93 1027.1
20200216022455 12 209 0.0 0.0 0.00 0.00 0.00 93 1027.1
20200216022012 12 209 0.0 0.0 0.00 0.00 0.00 93 1027.1
20200216021506 12 209 0.0 1.6 0.00 0.00 0.00 93 1027.1
20200216020957 12 209 0.0 4.8 0.00 0.00 0.00 93 1027.1
20200216020017 12 209 1.6 6.4 0.00 0.00 0.00 93 1027.0
20200216015519 12 209 526.3 526.3 0.00 0.00 0.00 93 1026.9
20200216015004 12 209 1.6 4.8 0.00 0.00 0.00 93 1027.0
20200216014510 12 209 3.2 4.8 0.00 0.00 0.00 93 1026.9
20200216014005 12 209 1.6 4.8 0.00 0.00 0.00 93 1026.9
20200216013504 12 209 1.6 4.8 0.00 0.00 0.00 93 1026.9
20200216013052 12 239 1.6 6.4 0.00 0.00 0.00 93 1026.9
20200216012502 12 239 3.2 8.0 0.00 0.00 0.00 93 1027.0
20200216011506 12 238 4.8 6.4 0.00 0.00 0.00 93 1027.0
20200216010958 12 241 3.2 11.3 0.00 0.00 0.00 93 1027.1
20200216010459 12 249 4.8 11.3 0.00 0.00 0.00 92 1027.1
20200216010023 12 276 6.4 11.3 0.00 0.00 0.00 92 1027.2
20200216005506 12 299 6.4 11.3 0.00 0.00 0.00 92 1027.3
20200216004956 13 307 8.0 12.9 0.00 0.00 0.00 92 1027.3
20200216004511 13 295 6.4 12.9 0.00 0.00 0.00 92 1027.3
20200216004004 13 296 6.4 11.3 0.00 0.00 0.00 92 1027.3
20200216003457 13 281 4.8 11.3 0.00 0.00 0.00 92 1027.3
20200216003008 13 308 4.8 11.3 0.00 0.00 0.00 91 1027.3
20200216002503 13 309 6.4 12.9 0.00 0.00 0.00 91 1027.3
20200216001957 13 276 8.0 12.9 0.00 0.00 0.00 91 1027.3
20200216001509 13 272 9.7 12.9 0.00 0.00 0.00 91 1027.4
20200216000954 13 266 11.3 14.5 0.00 0.00 0.00 91 1027.4
20200216000515 13 285 9.7 14.5 0.00 0.00 0.00 91 1027.3
20200216000008 13 257 6.4 12.9 0.00 0.00 0.00 91 1027.4
20200215234457 13 268 8.0 14.5 0.00 0.00 0.00 90 1027.2
20200215234006 13 264 9.7 14.5 0.00 0.00 0.00 90 1027.2
20200215233512 13 264 9.7 14.5 0.00 0.00 0.00 90 1027.1
20200215232958 13 274 8.0 11.3 0.00 0.00 0.00 90 1027.1
20200215232511 13 279 6.4 11.3 0.00 0.00 0.00 90 1027.1
20200215232001 13 261 3.2 11.3 0.00 0.00 0.00 90 1027.0
20200215231008 13 230 3.2 4.8 0.00 0.00 0.00 89 1026.9
20200215230502 13 230 1.6 6.4 0.00 0.00 0.00 89 1026.9
20200215230013 13 230 3.2 6.4 0.00 0.00 0.00 89 1026.8
20200215225554 13 230 3.2 6.4 0.00 0.00 0.00 89 1026.8
20200215225001 13 230 1.6 6.4 0.00 0.00 0.00 89 1026.8
20200215224455 13 230 4.8 8.0 0.00 0.00 0.00 89 1026.8
20200215224009 13 226 4.8 8.0 0.00 0.00 0.00 89 1026.8
20200215223503 13 253 6.4 8.0 0.00 0.00 0.00 89 1026.8
20200215223040 13 239 1.6 4.8 0.00 0.00 0.00 88 1026.8
20200215222509 13 239 1.6 6.4 0.00 0.00 0.00 88 1026.8
20200215222003 13 239 3.2 6.4 0.00 0.00 0.00 88 1026.8
20200215221501 13 239 4.8 6.4 0.00 0.00 0.00 88 1026.8
20200215220955 14 239 3.2 9.7 0.00 0.00 0.00 88 1026.8
20200215220506 14 248 4.8 11.3 0.00 0.00 0.00 88 1026.8
20200215220019 14 247 6.4 11.3 0.00 0.00 0.00 88 1026.8
20200215215502 14 235 8.0 12.9 0.00 0.00 0.00 88 1026.8
20200215214956 14 245 9.7 12.9 0.00 0.00 0.00 88 1026.9
20200215214511 14 259 9.7 14.5 0.00 0.00 0.00 88 1026.9
20200215214001 14 263 8.0 14.5 0.00 0.00 0.00 87 1026.9
20200215213455 14 248 6.4 14.5 0.00 0.00 0.00 87 1026.9